Location: Wildlife_Club
(35.6000°N, 81.4330°W)
Time: 17:23:30
(UTC-04:00)

Courier 1B Rocket - Pass Details

Date: 18 June 2019
Orbit: 921 x 1202 km, 28.2° (Epoch: 17 July)

Event Time Altitude Azimuth Distance (km) Brightness Sun altitude
Exits shadow 05:23:32 - 203° (SSW) 3,200 7.2 -8.7°
Reaches altitude 10° 05:25:18 10° 193° (SSW) 2,776 6.9 -8.4°
Maximum altitude 05:29:18 17° 156° (SSE) 2,273 6.8 -7.8°
Drops below altitude 10° 05:33:11 10° 118° (ESE) 2,676 7.7 -7.1°
Sets 05:36:46 0° 98° (E) 3,587 8.8 -6.5°
